Temperature
9 8 9 10 11 12 13 13 14 15 17 17 16 17 18 19 20 20 21 21 21 21 21 21 20 20 19 18 17 16 16 15 14 14 13 13 13 13 12 12 12 12 12 11
8 8 10 11 11 12 12 12 13 14 16 17 16 16 18 19 19 20 20 21 21 22 21 21 21 20 19 18 17 16 16 16 15 15 15 15 14 13 13 12 12 12 12 12
7 9 11 11 11 11 11 11 12 13 14 15 15 15 16 18 19 20 20 21 21 22 21 21 21 20 19 18 17 17 16 16 16 15 14 13 13 12 12 12 12 12 12 12
8 9 10 10 10 11 10 12 13 13 12 12 14 13 15 17 18 18 19 20 21 21 21 21 21 20 19 19 18 17 16 16 16 15 14 14 13 13 14 14 13 13 12 12
8 9 10 10 11 11 11 12 12 12 12 11 12 12 14 17 17 18 19 20 21 21 21 21 21 20 20 19 18 17 16 16 15 15 15 14 14 14 14 13 13 13 12 12
8 9 10 10 11 12 12 11 11 11 10 10 11 12 13 16 17 18 19 20 21 21 21 21 21 20 20 19 18 17 16 16 15 15 14 14 14 14 13 13 13 12 12 12
7 9 10 10 9 10 10 9 8 8 9 10 12 13 13 17 19 19 19 20 20 20 20 20 20 20 19 19 18 18 17 16 15 14 14 14 14 13 13 13 13 13 12 12
6 7 9 9 9 9 9 9 9 9 9 11 13 13 15 18 19 19 20 20 20 20 20 20 20 19 19 19 18 18 17 16 15 15 14 14 13 13 13 13 13 13 13 13
5 7 9 10 10 10 9 9 10 10 10 11 12 14 16 18 18 18 18 19 19 19 19 19 19 19 19 18 18 18 17 16 16 15 14 13 13 13 12 12 12 12 12 12
5 5 8 9 9 9 9 9 9 9 9 10 12 13 15 16 16 17 17 17 18 18 18 18 18 18 18 18 18 17 17 16 16 15 14 13 13 12 12 12 12 12 12 12
5 5 6 8 8 8 8 8 9 8 9 10 11 14 17 17 17 17 17 17 18 18 18 17 17 17 17 17 17 17 16 16 15 15 14 13 13 12 12 12 11 11 11 11
5 5 5 7 8 8 8 8 8 8 8 10 11 13 16 16 17 17 17 17 18 17 17 17 16 16 16 16 16 16 16 15 15 14 14 13 12 12 12 11 11 11 11 11
4 4 4 6 7 7 7 7 8 8 9 9 11 13 15 15 16 16 17 17 17 17 16 16 15 15 15 15 16 15 15 15 15 14 14 13 12 12 12 11 11 11 11 11
5 4 4 5 5 6 6 7 7 7 8 8 10 12 14 15 15 15 16 16 16 16 15 15 14 14 15 15 15 15 14 15 14 14 13 13 12 12 12 11 11 11 11 11
4 3 4 5 6 6 7 7 8 8 8 8 10 11 13 13 14 14 15 16 15 15 14 14 13 13 14 14 14 14 14 14 14 14 13 13 12 12 12 11 11 11 10 10
3 3 4 5 7 7 7 8 8 8 9 9 10 11 12 13 14 14 14 14 14 14 14 13 13 13 13 14 14 14 14 14 14 13 13 13 12 12 11 11 11 10 10 10
2 2 3 4 6 6 6 8 8 8 9 10 10 11 12 12 12 12 13 13 13 13 13 13 13 13 14 14 14 14 14 14 13 13 13 12 12 12 11 11 10 10 10 9
2 2 3 3 5 4 7 9 10 9 9 10 10 10 11 11 12 13 12 12 12 12 13 13 13 13 13 14 14 14 14 14 13 13 13 13 12 11 11 11 10 10 9 9
4 3 2 3 4 5 8 9 9 9 9 9 9 10 10 11 12 12 12 12 12 12 13 13 13 13 13 13 14 14 13 13 13 13 13 12 12 11 11 10 10 10 9 9
4 3 2 2 3 5 7 9 9 9 8 8 8 9 9 10 10 10 11 12 12 12 13 13 13 13 13 13 13 13 13 13 13 13 13 12 12 11 11 10 10 9 9 9
3 2 2 2 3 5 8 8 9 7 7 7 8 8 8 8 9 10 11 11 12 12 12 13 13 13 13 13 13 13 13 13 13 13 12 12 12 11 11 10 10 9 9 8
3 2 2 3 3 4 7 7 7 6 7 7 7 7 7 8 9 9 10 10 11 11 12 12 12 12 12 13 13 13 13 13 13 12 12 12 11 11 10 10 9 9 8 8
4 4 3 4 4 6 7 7 7 7 7 7 7 7 7 7 8 8 9 9 10 11 11 12 12 12 12 12 13 13 13 13 12 12 12 11 11 10 10 10 9 9 8 8
4 5 4 4 5 6 7 7 7 6 6 6 6 6 7 7 7 8 8 9 9 10 10 11 11 11 11 11 12 13 13 12 12 12 11 11 11 10 9 9 9 8 8 8
3 4 3 3 5 5 6 7 7 6 6 6 6 6 6 6 7 7 7 8 9 9 10 10 10 11 11 11 11 12 12 12 11 11 11 10 10 10 9 8 8 8 8 8
3 3 3 3 5 5 5 6 6 6 6 6 6 6 6 6 6 6 7 7 8 8 9 9 10 10 10 10 11 11 11 11 11 11 10 10 9 9 8 8 7 7 7 6
Wind_Speed
8 9 14 18 21 19 17 18 18 18 16 17 20 21 19 16 15 15 15 15 15 15 16 15 16 16 16 16 18 19 18 17 15 13 12 12 10 9 8 7 12 15 15 15
9 17 19 17 18 19 20 20 20 15 14 14 15 19 17 16 16 14 14 14 15 14 15 16 16 16 17 18 19 20 20 19 17 14 12 10 9 7 7 6 9 14 14 15
16 14 14 16 18 19 20 20 19 15 11 12 11 16 19 16 16 16 15 14 14 14 15 15 15 16 16 17 19 19 21 19 18 15 11 9 8 7 7 9 9 10 13 14
14 17 16 17 18 18 19 18 18 15 11 9 10 10 15 17 18 19 18 16 15 15 14 14 15 16 17 16 17 18 20 19 18 17 15 16 14 12 11 11 9 9 11 12
10 12 15 19 19 17 13 11 13 13 11 11 12 10 9 15 19 21 19 18 17 15 14 14 14 16 16 16 16 17 18 19 18 18 17 17 12 10 8 9 11 11 10 11
15 13 11 14 15 13 10 7 8 8 8 14 17 13 9 14 19 19 20 19 18 16 15 14 13 13 14 15 15 16 17 18 19 20 18 18 16 13 13 12 13 12 9 9
11 14 11 8 7 9 9 6 5 6 9 11 13 13 10 11 14 16 16 16 16 15 14 13 13 13 14 16 16 17 18 17 18 20 19 19 17 16 16 14 14 12 10 9
5 8 8 7 8 7 10 11 7 6 7 7 10 13 9 12 10 10 11 11 12 14 13 13 13 13 13 16 17 18 18 17 18 19 19 18 16 13 11 13 11 13 11 11
4 6 6 8 7 9 9 12 7 5 6 6 7 8 10 11 10 9 10 10 11 11 12 12 12 12 12 14 16 17 17 16 17 18 17 16 16 14 12 11 11 10 9 10
3 7 7 7 5 9 9 7 5 6 5 7 8 11 9 12 13 12 11 11 10 10 10 10 11 12 12 13 13 14 15 15 14 16 15 14 15 14 12 11 12 11 11 11
5 5 5 5 7 8 7 8 6 5 6 5 5 6 7 10 13 14 12 11 11 11 10 10 9 10 11 11 12 13 14 13 13 15 14 13 14 13 12 11 11 11 11 11
4 3 6 8 6 6 6 7 6 5 5 6 6 6 5 2 5 8 10 10 10 10 9 9 10 10 10 11 11 12 13 13 13 13 13 13 13 13 12 11 11 11 11 11
4 3 4 3 4 5 5 6 8 6 5 6 6 7 5 4 3 2 4 6 8 9 9 9 9 10 10 10 10 11 12 12 12 13 13 13 13 13 13 12 11 11 11 11
6 5 6 6 4 4 7 10 10 8 7 7 10 10 8 5 3 3 2 4 7 8 9 9 9 9 9 9 9 10 11 12 12 13 13 14 13 13 12 11 11 11 11 11
3 6 9 12 13 11 12 13 14 14 12 10 11 12 12 8 6 4 2 5 7 8 9 9 9 8 9 9 10 9 10 12 12 13 13 13 12 12 11 11 11 11 11 11
3 5 8 11 12 12 14 14 15 17 16 17 17 17 9 8 5 3 1 5 6 7 8 9 9 10 10 11 11 10 10 11 12 13 12 12 12 12 12 12 11 11 11 10
4 4 5 7 8 9 11 13 15 14 13 14 16 13 7 7 4 2 1 1 3 4 6 8 8 9 10 10 11 11 11 11 12 12 12 13 13 13 12 12 12 12 11 10
7 6 4 5 5 8 7 6 10 13 12 11 11 9 7 7 5 2 0 0 1 2 4 6 7 8 7 7 9 9 11 12 12 12 13 13 13 13 13 13 12 11 10 10
13 8 5 4 5 8 8 6 7 9 10 7 8 8 7 8 5 4 3 2 2 3 3 5 6 8 8 9 10 11 11 11 12 13 13 14 14 14 14 14 12 11 10 9
11 9 6 5 5 6 4 3 2 4 6 3 5 6 6 4 4 5 4 4 2 1 1 3 6 8 9 9 11 12 12 13 13 13 13 14 14 14 14 13 12 10 10 10
7 7 10 9 7 7 6 5 1 3 3 4 4 5 5 4 5 7 5 4 2 1 1 3 6 8 9 10 11 12 12 13 12 13 13 13 13 14 14 12 11 12 11 11
6 6 7 7 9 8 5 2 1 2 3 3 4 5 7 8 8 7 5 4 3 2 1 2 4 6 8 10 12 11 12 11 13 14 14 14 14 13 13 14 12 12 13 13
7 7 4 6 8 6 5 3 3 3 4 5 5 6 6 8 9 8 6 5 4 2 2 3 4 6 7 10 11 12 11 12 15 15 14 14 14 12 13 14 14 13 11 10
6 7 7 8 9 9 9 7 5 4 5 6 6 7 7 8 8 8 7 5 5 3 2 2 3 6 7 9 10 10 11 13 16 16 15 14 14 13 12 10 11 11 11 10
8 6 8 11 12 11 10 8 7 8 7 7 7 7 7 8 8 8 7 6 5 4 3 3 5 6 7 8 9 11 13 14 15 16 15 14 13 13 12 9 7 9 7 10
10 11 12 12 10 10 10 10 10 10 10 8 8 9 8 8 9 8 8 7 6 4 3 3 4 5 7 9 10 11 13 15 17 16 15 13 12 12 12 12 11 13 11 14
Wind_Direction
221 225 223 218 221 232 238 240 244 243 234 227 233 236 234 231 225 221 219 216 212 205 198 194 186 179 175 172 171 172 175 177 172 175 179 180 182 177 175 171 172 174 177 174
243 238 237 236 235 236 241 244 249 256 247 235 239 244 240 232 227 223 224 222 215 209 197 193 186 179 176 175 174 174 177 179 179 181 182 180 174 175 174 169 175 178 178 176
239 247 238 236 239 237 240 240 244 250 262 260 258 252 242 235 232 227 225 225 220 213 202 193 187 181 178 178 178 179 180 181 181 175 172 169 166 169 178 183 185 183 180 178
252 252 245 240 238 236 241 241 249 251 248 248 232 253 239 228 228 226 223 222 221 219 210 197 188 182 181 181 179 179 179 179 181 176 178 178 182 186 189 184 182 181 182 181
248 249 244 240 240 237 245 246 251 254 252 254 240 247 247 223 224 222 219 217 217 216 211 201 192 184 181 177 176 178 177 179 179 180 182 183 188 187 176 173 177 184 188 187
259 264 255 247 244 244 246 242 256 259 253 246 234 233 252 222 221 217 215 213 211 210 208 203 192 181 178 175 173 175 177 180 179 182 184 187 188 183 177 179 182 186 187 190
262 255 251 248 241 241 227 200 205 205 217 238 223 225 240 231 223 214 208 208 206 204 201 196 189 181 176 173 174 176 179 181 181 183 187 190 191 188 186 184 184 183 185 190
253 255 227 225 228 222 222 202 207 205 209 230 212 227 235 228 230 212 202 202 199 199 197 193 187 182 175 174 175 178 181 182 182 184 188 189 188 190 192 185 182 184 187 188
270 259 240 236 234 212 212 214 231 266 266 255 225 235 236 226 221 207 200 200 198 197 190 185 180 178 173 173 177 179 181 182 182 184 184 186 186 187 189 184 178 181 180 179
272 280 267 241 238 223 227 214 210 217 223 234 236 231 226 202 207 208 203 199 196 192 187 181 176 176 174 174 174 176 179 182 180 180 182 185 185 185 184 181 180 175 173 170
272 262 263 233 214 217 207 206 208 212 233 230 243 243 220 203 199 201 202 200 192 188 184 178 170 168 165 163 168 172 176 174 176 178 177 177 179 180 179 180 178 172 169 167
262 264 261 252 238 215 217 206 201 212 233 239 254 265 299 275 213 201 193 193 187 181 175 168 160 154 155 160 165 168 171 172 174 174 171 173 172 172 176 177 173 167 166 166
301 265 272 259 217 208 225 220 223 240 255 243 239 255 301 331 333 272 182 175 168 164 161 154 152 157 158 160 163 165 168 168 167 165 166 168 169 171 174 173 167 163 160 158
304 254 244 253 274 255 244 240 233 228 234 246 245 262 284 296 297 299 181 161 154 156 152 150 154 158 159 158 159 162 163 162 161 162 165 168 171 170 168 164 160 158 155 153
302 269 266 272 273 262 250 242 235 231 233 244 258 270 274 285 287 271 182 162 153 152 156 157 160 160 158 157 157 158 159 159 159 159 162 164 160 157 155 154 153 149 147 147
267 277 288 275 264 261 258 248 241 238 235 243 260 266 270 283 303 323 167 150 151 154 164 164 164 160 161 160 158 156 156 157 157 157 157 153 151 151 152 150 146 142 140 141
247 259 284 276 283 280 252 232 231 233 232 232 244 256 283 291 297 294 8 125 156 158 164 168 168 163 164 164 158 159 156 150 151 152 150 149 148 148 148 146 144 145 144 142
234 243 258 272 280 244 249 231 232 237 240 238 248 274 278 281 272 261 12 163 189 174 178 175 168 160 156 154 151 149 148 150 150 150 151 150 149 147 146 146 147 145 143 144
218 221 237 250 257 271 270 256 241 241 240 247 256 275 291 295 271 267 309 285 231 215 206 184 167 157 153 155 153 148 150 151 152 155 157 155 152 150 149 150 149 145 142 140
202 206 224 241 251 249 272 302 275 265 245 282 277 289 299 302 255 263 307 308 296 260 199 165 151 152 155 158 154 153 156 158 161 160 157 154 152 151 150 149 144 141 140 137
192 204 220 234 248 265 285 301 308 218 258 336 316 310 307 278 269 290 304 305 281 265 209 154 151 158 163 160 158 160 162 166 160 150 148 149 150 148 146 142 141 139 135 131
213 214 215 220 234 250 302 299 221 272 321 342 337 324 314 300 298 304 308 310 302 274 201 168 162 164 164 161 162 165 169 160 148 146 146 147 147 145 143 140 138 137 137 134
224 219 223 223 240 282 305 307 310 334 326 331 323 309 307 307 306 310 309 303 297 266 225 193 180 171 171 169 167 169 165 153 148 145 147 146 143 141 143 143 143 142 142 141
254 245 247 257 260 277 287 291 289 300 299 307 311 305 300 293 298 305 303 298 296 277 263 221 182 177 179 173 169 166 158 154 150 148 147 146 144 141 138 139 144 147 149 146
258 268 264 265 271 282 274 280 285 289 290 295 296 296 294 292 291 292 292 287 282 277 255 221 205 196 185 173 165 158 156 154 150 148 147 146 143 140 134 126 126 137 144 153
245 249 254 260 271 278 286 295 296 293 289 289 294 296 291 281 281 282 280 277 271 263 244 227 226 208 183 169 162 160 159 157 153 151 150 149 145 139 134 124 102 85 108 120
Height
1425 1427 1422 1420 1421 1420 1419 1419 1417 1412 1409 1412 1413 1411 1410 1411 1412 1413 1416 1419 1422 1426 1431 1436 1441 1445 1451 1455 1459 1463 1468 1473 1478 1482 1486 1490 1495 1499 1503 1506 1509 1512 1515 1518
1423 1419 1416 1417 1418 1418 1418 1418 1416 1411 1407 1407 1409 1407 1405 1404 1405 1407 1409 1412 1415 1419 1424 1429 1434 1438 1443 1448 1453 1457 1461 1466 1471 1475 1480 1485 1490 1494 1499 1503 1506 1509 1512 1515
1418 1411 1411 1413 1414 1416 1415 1415 1414 1413 1409 1406 1409 1408 1402 1399 1399 1401 1403 1406 1409 1412 1416 1421 1426 1430 1436 1441 1446 1450 1455 1459 1465 1470 1476 1482 1487 1491 1495 1497 1501 1504 1507 1511
1413 1409 1409 1408 1409 1411 1412 1409 1410 1410 1414 1414 1411 1413 1399 1393 1393 1393 1395 1398 1401 1405 1409 1413 1418 1423 1428 1434 1439 1444 1449 1453 1459 1464 1469 1473 1477 1481 1484 1490 1494 1499 1503 1506
1408 1405 1404 1404 1403 1405 1406 1406 1408 1410 1413 1415 1410 1412 1397 1386 1386 1384 1385 1389 1393 1397 1402 1406 1410 1415 1421 1427 1433 1438 1443 1448 1453 1458 1462 1466 1471 1476 1481 1486 1490 1494 1498 1502
1404 1402 1401 1399 1398 1401 1402 1407 1410 1410 1414 1415 1405 1408 1395 1379 1374 1374 1376 1380 1384 1389 1394 1399 1404 1409 1414 1420 1425 1431 1436 1441 1446 1451 1456 1460 1465 1470 1475 1479 1483 1488 1492 1496
1402 1398 1397 1397 1399 1401 1402 1410 1415 1416 1416 1406 1393 1396 1384 1366 1361 1362 1366 1371 1375 1381 1386 1391 1396 1401 1406 1411 1417 1423 1429 1435 1440 1444 1449 1454 1459 1464 1468 1473 1477 1481 1485 1489
1404 1398 1393 1393 1396 1398 1399 1403 1406 1406 1403 1393 1385 1384 1370 1358 1355 1356 1359 1363 1368 1373 1378 1383 1389 1394 1399 1404 1410 1416 1422 1427 1433 1438 1442 1448 1453 1458 1463 1468 1472 1475 1479 1483
1406 1397 1388 1389 1390 1394 1397 1397 1393 1397 1391 1389 1380 1368 1359 1352 1352 1353 1355 1358 1362 1367 1371 1376 1382 1387 1392 1397 1403 1408 1414 1421 1426 1431 1436 1442 1447 1452 1457 1463 1467 1471 1475 1479
1406 1403 1391 1388 1389 1389 1391 1392 1395 1398 1396 1391 1376 1367 1359 1351 1351 1350 1352 1354 1357 1362 1367 1371 1376 1381 1386 1391 1397 1403 1408 1414 1419 1425 1430 1436 1441 1446 1452 1458 1462 1466 1470 1474
1405 1404 1394 1389 1387 1387 1390 1392 1391 1392 1388 1385 1379 1362 1338 1340 1341 1344 1346 1348 1353 1357 1362 1366 1371 1376 1381 1386 1391 1397 1402 1408 1414 1419 1425 1430 1436 1441 1447 1452 1457 1462 1466 1470
1404 1402 1397 1389 1384 1384 1386 1387 1390 1394 1389 1379 1373 1359 1335 1336 1335 1337 1340 1345 1349 1354 1358 1363 1367 1371 1376 1381 1386 1391 1396 1402 1408 1414 1419 1425 1431 1437 1442 1447 1452 1457 1462 1466
1405 1403 1399 1390 1388 1386 1386 1386 1388 1388 1386 1379 1373 1358 1338 1337 1337 1337 1339 1342 1347 1351 1356 1360 1364 1367 1372 1376 1381 1386 1391 1397 1403 1409 1415 1420 1426 1432 1437 1442 1448 1453 1457 1462
1404 1402 1400 1393 1388 1387 1386 1384 1385 1387 1386 1379 1368 1355 1345 1343 1342 1341 1340 1342 1346 1349 1353 1357 1360 1364 1368 1373 1377 1382 1387 1392 1398 1404 1410 1415 1421 1427 1433 1438 1444 1448 1453 1457
1404 1401 1394 1388 1384 1383 1380 1378 1378 1379 1378 1377 1363 1357 1350 1347 1345 1343 1342 1343 1345 1348 1352 1355 1358 1362 1366 1370 1374 1379 1384 1388 1394 1400 1406 1411 1417 1423 1429 1434 1440 1445 1449 1453
1403 1401 1394 1386 1379 1376 1374 1371 1371 1370 1368 1367 1362 1355 1348 1346 1345 1344 1343 1343 1345 1347 1350 1353 1356 1359 1363 1366 1371 1375 1380 1385 1391 1396 1402 1408 1414 1420 1425 1431 1436 1441 1446 1450
1402 1401 1397 1386 1377 1374 1371 1363 1363 1361 1358 1358 1357 1352 1349 1347 1346 1345 1345 1345 1346 1347 1349 1352 1354 1357 1361 1364 1368 1373 1377 1383 1388 1393 1399 1405 1411 1416 1422 1427 1432 1437 1442 1447
1399 1398 1397 1389 1382 1382 1361 1352 1352 1354 1352 1351 1350 1349 1348 1346 1345 1345 1345 1345 1345 1346 1348 1350 1353 1356 1359 1363 1367 1371 1376 1381 1386 1391 1396 1402 1407 1413 1418 1424 1429 1434 1439 1443
1389 1393 1394 1390 1382 1369 1354 1350 1349 1351 1349 1349 1349 1348 1346 1344 1342 1343 1344 1344 1344 1345 1347 1349 1351 1354 1357 1361 1365 1369 1374 1378 1383 1388 1393 1398 1404 1409 1415 1420 1425 1431 1436 1440
1382 1387 1392 1388 1382 1370 1353 1346 1345 1349 1350 1348 1347 1347 1346 1344 1346 1343 1343 1343 1343 1344 1346 1348 1350 1353 1356 1359 1363 1367 1371 1375 1380 1385 1390 1396 1401 1407 1412 1417 1423 1428 1433 1438
1381 1385 1387 1385 1380 1364 1350 1346 1345 1355 1354 1349 1347 1347 1346 1346 1347 1345 1342 1342 1342 1343 1344 1346 1348 1351 1354 1357 1360 1364 1368 1373 1378 1383 1388 1394 1399 1405 1410 1415 1421 1426 1430 1435
1375 1378 1378 1377 1376 1366 1350 1347 1350 1351 1349 1347 1346 1346 1346 1344 1343 1341 1340 1340 1340 1341 1342 1343 1346 1348 1352 1355 1358 1361 1365 1371 1376 1381 1386 1391 1396 1402 1408 1413 1418 1423 1428 1432
1368 1368 1367 1366 1362 1352 1350 1349 1349 1348 1348 1346 1345 1344 1344 1342 1340 1339 1338 1338 1338 1339 1339 1341 1343 1345 1349 1352 1355 1358 1362 1367 1372 1378 1383 1388 1394 1399 1405 1410 1415 1420 1425 1429
1362 1360 1360 1358 1351 1349 1347 1346 1346 1346 1345 1344 1343 1342 1341 1340 1338 1337 1336 1335 1335 1335 1336 1337 1339 1341 1344 1348 1351 1355 1359 1364 1369 1374 1379 1385 1390 1396 1402 1407 1412 1417 1422 1426
1360 1358 1357 1354 1350 1347 1344 1344 1344 1343 1342 1341 1340 1340 1338 1336 1335 1334 1332 1332 1332 1332 1332 1333 1335 1337 1340 1344 1348 1351 1355 1359 1364 1370 1375 1381 1386 1392 1398 1404 1410 1415 1420 1424
1354 1355 1354 1349 1346 1345 1342 1341 1341 1339 1338 1337 1336 1334 1333 1332 1330 1329 1328 1327 1327 1328 1328 1329 1331 1333 1336 1340 1343 1347 1351 1355 1360 1365 1371 1376 1382 1388 1394 1400 1406 1413 1419 1423